Starlink 31126

operational
NORAD ID: 58675 Int'l Des: 2023-211 Owner: SPXS Country: US Constellation: starlink
LEOCIRCULAR

关于 Starlink 31126

正在加载描述...

实时位置

正在加载3D地球...

即将过境

高度历史

Altitude vs Time

uPlot chart will show altitude changes over time

两行轨道根数

1 58675U 23211J 25308.04153670 .00003931 00000-0 15229-3 0 9992
2 58675 42.9984 74.4105 0001152 269.4210 90.6509 15.27579053103257
Epoch: Nov 4, 2025 • Age: 18 hours

当前状态

高度 486.6 km
速度 7.63 km/s
星下点 41.53°N, 145.54°W
发射日期 Dec 29, 2023
运行时间 1.8 years
类型 internet

技术详情

分类 Payload
质量 730.00 kg
干质量 700.00 kg
总质量 730.00 kg
长度 0.30 m
直径 4.10 m
跨度 29.00 m
形状 Box + pan
制造商 SPXS
平台类型 Starlink V2M
阶段状态 In Orbit
所有者/国家 SPXS/US

大型星座

Loading constellations...